Location: Stockholm
(59.3330°N, 18.0500°E)
Time: 09:45:44
(UTC+01:00)

FENGYUN 1C DEB - Pass Details

Date: 10 December 2023
Orbit: 841 x 915 km, 98.8° (Epoch: 21 February)

Event Time Altitude Azimuth Distance (km) Brightness Sun altitude
Exits shadow 18:47:47 18° 5° (N) 1,999 ? -28.1°
Drops below altitude 10° 18:49:24 10° 353° (N) 2,483 ? -28.3°
Sets 18:52:04 0° 342° (NNW) 3,429 ? -28.6°
